Starlink 37161

operational
NORAD ID: 68566 Int'l Des: 2026-070 Owner: SPXS Country: US Constellation: starlink
LEOCIRCULAR

Über Starlink 37161

Beschreibung wird geladen...

Live-Position

3D-Globus wird geladen...

Nächste Überflüge

Höhenverlauf

Altitude vs Time

uPlot chart will show altitude changes over time

Zweizeiliger Elementsatz

1 68566C 26070Z 26093.82062500 .00507130 00000+0 61950-3 0 933
2 68566 53.1621 260.0105 0007876 283.4771 191.2617 16.06977496 18
Epoch: 3. Apr. 2026 • Age: 30 hours

Aktueller Status

Höhe 256.2 km
Geschwindigkeit 7.75 km/s
Subsatellitenpunkt 1.21°N, 148.11°E
Startdatum 2. Apr. 2026
Alter 1 days
Typ internet

Technische Details

Klassifizierung Payload
Masse 575.00 kg
Trockenmasse 530.00 kg
Gesamtmasse 575.00 kg
Länge 0.30 m
Durchmesser 4.10 m
Spannweite 29.00 m
Form Box + pan
Hersteller SPXS
Bus-Typ Starlink V2MO
Phasenstatus In Orbit
Besitzer/Staat SPXS/US

Große Konstellationen

Loading constellations...